Regional Weather Roundup
Issued by NWS

Home | Current Version | Previous Version | Text Only | Print | Product List | Glossary Off
Versions: 1 2 3 4 5 6 7 8 9 10 11 12 13 14 15 16 17 18 19 20 21 22 23 24 25 26 27

000
ASUS45 KSLC 240810
RWRUT

UTAH REGIONAL WEATHER ROUNDUP
NATIONAL WEATHER SERVICE SALT LAKE CITY UT
200 AM MDT SUN SEP 24 2017

UTZ001>011-023>025-240900-

NORTHERN UTAH

CITY           SKY/WX    TMP DP  RH WIND       PRES   REMARKS
BRIGHAM CITY   CLOUDY    47  42  84 S6        29.92S
HILL AFB       CLOUDY    42  40  91 SE3       29.91S
LOGAN          LGT RAIN  46  39  76 N9        29.92F
OGDEN          CLOUDY    44  41  89 S3        29.91F
SALT LAKE CITY CLOUDY    45  41  86 S3        29.91F
TOOELE VALLEY  LGT RAIN  43  41  93 S5        29.93F
WENDOVER       MOCLDY    48  30  49 NW10      29.96F
HEBER CITY     CLOUDY    39  36  87 CALM      29.89S
WEST JORDAN    CLOUDY    42  42 100 CALM      29.92F

$$

UTZ011>015-024>027-240900-

CENTRAL/NORTHEAST UTAH

CITY           SKY/WX    TMP DP  RH WIND       PRES   REMARKS
PROVO AIRPORT  LGT RAIN  43  40  89 E9        29.92F
MOAB/CANYONLAN CLOUDY    54  35  48 NW13      29.79R
DELTA          CLOUDY    41  39  93 S5        29.93S
PRICE          CLOUDY    45  36  70 E3        29.86S
ROOSEVELT      CLOUDY    45  37  76 W5        29.87F
VERNAL         MOCLDY    49  39  68 N7        29.84S

$$

UTZ013>016-019>022-027-240900-

SOUTHERN UTAH

CITY           SKY/WX    TMP DP  RH WIND       PRES   REMARKS
BRYCE CANYON   MOCLDY    33  31  92 W16       29.93S WCI  23
CEDAR CITY     CLOUDY    36  36 100 CALM      29.95F
MILFORD        LGT RAIN  42  39  89 CALM      29.95S
ST GEORGE      CLOUDY    49  36  61 S7        29.95R
HANKSVILLE     CLOUDY    54  28  37 SW5       29.83S
BLANDING         N/A     43  22  42 SW6       29.94R

$$

REGIONAL REPORTS     COLORADO/ARIZONA

CITY           SKY/WX    TMP DP  RH WIND       PRES   REMARKS
CRAIG, CO      CLEAR     41  37  86 E9        29.87F
GRAND JUNCTION CLEAR     44  43  96 SW3       29.81R
RIFLE, CO      CLOUDY    41  40  96 E7        29.86R
MONTROSE, CO   CLEAR     41  40  96 SE6       29.87S
CORTEZ, CO     CLEAR     43  40  89 NE3       29.88R
PAGE, AZ       CLEAR     52  26  36 W9        29.87S
GRAND CANYON   PTCLDY    36  22  56 SW6       29.97S WCI  31
KINGMAN, AZ    CLEAR     49  26  41 E8        29.94S
FLAGSTAFF, AZ  CLEAR     37  21  52 W5        29.98R WCI  33

$$

REGIONAL REPORTS    NEVADA/IDAHO/WYOMING

CITY           SKY/WX    TMP DP  RH WIND       PRES   REMARKS
LAS VEGAS, NV  CLEAR     60  34  37 E3        29.93S
ELY, NY        PTCLDY    29  27  92 SE3       30.01S
ELKO, NV       CLEAR     34  29  82 NW3       30.03F
POCATELLO, ID  CLOUDY    39  34  82 W3        30.01S
BURLEY, ID     MOCLDY    44  35  70 CALM      30.00F
FORT BRIDGER,  CLOUDY    36  36 100 CALM      29.96S
EVANSTON, WY   FOG       34  34 100 N5        29.92F VSB 1/4 WCI  30
ROCK SPRINGS,  CLOUDY    36  32  85 NE22G30   29.94F WCI  25
KEMMERER, WY   FLURRIES  32  32 100 NE9       29.95S WCI  24

$$




USA.gov is the U.S. government's official web portal to all federal, state and local government web resources and services.